• In Netherlands
  • List of Countries
  • For 7 days
  • Water Temperature
  • Satellite Maps
  • Weather Map
  • Weather Widgets
  • user-avatar
    Login

    Hourly Weather Kandahar

    Today, 23 October, Monday

    Time Temperature Precipitation Wind Pressure Humidity
    00:00 +18°C° 0 mm 1 mps 673 mmHg 16%
    01:00 +16°C° 0 mm 1 mps 673 mmHg 17%
    02:00 +16°C° 0 mm 1 mps 673 mmHg 18%
    03:00 +15°C° 0 mm 1 mps 673 mmHg 18%
    04:00 +14°C° 0 mm 0 mps 672 mmHg 19%
    05:00 +15°C° 0 mm 0 mps 673 mmHg 18%
    06:00 +16°C° 0 mm 0 mps 674 mmHg 17%
    07:00 +17°C° 0 mm 0 mps 674 mmHg 16%
    08:00 +21°C° 0 mm 1 mps 675 mmHg 14%
    09:00 +24°C° 0 mm 1 mps 676 mmHg 12%
    10:00 +27°C° 0 mm 1 mps 676 mmHg 9%
    11:00 +28°C° 0 mm 2 mps 676 mmHg 9%
    12:00 +29°C° 0 mm 4 mps 676 mmHg 8%
    13:00 +30°C° 0 mm 5 mps 676 mmHg 8%
    14:00 +29°C° 0 mm 5 mps 676 mmHg 8%
    15:00 +29°C° 0 mm 5 mps 676 mmHg 8%
    16:00 +29°C° 0 mm 4 mps 675 mmHg 7%
    17:00 +27°C° 0 mm 4 mps 675 mmHg 9%
    18:00 +25°C° 0 mm 3 mps 675 mmHg 10%
    19:00 +22°C° 0 mm 3 mps 676 mmHg 11%
    20:00 +21°C° 0 mm 2 mps 676 mmHg 12%
    21:00 +21°C° 0 mm 2 mps 676 mmHg 12%
    22:00 +20°C° 0 mm 2 mps 676 mmHg 13%
    23:00 +20°C° 0 mm 1 mps 676 mmHg 13%

    Tomorrow, 24 October, Tuesday

    Time Temperature Precipitation Wind Pressure Humidity
    00:00 +19°C° 0 mm 1 mps 676 mmHg 14%
    01:00 +19°C° 0 mm 1 mps 676 mmHg 14%
    02:00 +18°C° 0 mm 1 mps 676 mmHg 15%
    03:00 +18°C° 0 mm 1 mps 676 mmHg 15%
    04:00 +16°C° 0 mm 1 mps 676 mmHg 15%
    05:00 +18°C° 0 mm 1 mps 676 mmHg 15%
    06:00 +19°C° 0 mm 1 mps 677 mmHg 14%
    07:00 +20°C° 0 mm 1 mps 677 mmHg 13%
    08:00 +22°C° 0 mm 1 mps 678 mmHg 11%
    09:00 +25°C° 0 mm 1 mps 679 mmHg 9%
    10:00 +27°C° 0 mm 1 mps 679 mmHg 7%
    11:00 +28°C° 0 mm 1 mps 679 mmHg 7%
    12:00 +29°C° 0 mm 2 mps 679 mmHg 6%
    13:00 +30°C° 0 mm 3 mps 679 mmHg 5%
    14:00 +30°C° 0 mm 3 mps 679 mmHg 5%
    15:00 +30°C° 0 mm 3 mps 678 mmHg 5%
    16:00 +29°C° 0 mm 4 mps 678 mmHg 5%
    17:00 +27°C° 0 mm 3 mps 678 mmHg 6%
    18:00 +25°C° 0 mm 3 mps 678 mmHg 7%
    19:00 +23°C° 0 mm 2 mps 678 mmHg 8%
    20:00 +21°C° 0 mm 2 mps 678 mmHg 8%
    21:00 +20°C° 0 mm 2 mps 678 mmHg 9%
    22:00 +20°C° 0 mm 2 mps 678 mmHg 10%
    23:00 +20°C° 0 mm 1 mps 678 mmHg 11%

    Day after tomorrow, 25 October, Wednesday

    Time Temperature Precipitation Wind Pressure Humidity
    00:00 +19°C° 0 mm 1 mps 677 mmHg 12%
    01:00 +18°C° 0 mm 1 mps 677 mmHg 12%
    02:00 +18°C° 0 mm 1 mps 677 mmHg 13%
    03:00 +16°C° 0 mm 1 mps 677 mmHg 14%
    04:00 +15°C° 0 mm 1 mps 676 mmHg 15%
    05:00 +16°C° 0 mm 1 mps 677 mmHg 14%
    06:00 +18°C° 0 mm 1 mps 678 mmHg 13%
    07:00 +19°C° 0 mm 1 mps 678 mmHg 13%
    08:00 +22°C° 0 mm 1 mps 679 mmHg 11%
    09:00 +24°C° 0 mm 1 mps 679 mmHg 9%
    10:00 +27°C° 0 mm 2 mps 680 mmHg 7%
    11:00 +28°C° 0 mm 3 mps 680 mmHg 6%
    12:00 +29°C° 0 mm 3 mps 679 mmHg 6%
    13:00 +30°C° 0 mm 4 mps 679 mmHg 5%
    14:00 +30°C° 0 mm 4 mps 679 mmHg 5%
    15:00 +29°C° 0 mm 5 mps 678 mmHg 5%
    16:00 +29°C° 0 mm 5 mps 678 mmHg 5%
    17:00 +27°C° 0 mm 4 mps 678 mmHg 6%
    18:00 +25°C° 0 mm 3 mps 678 mmHg 7%
    19:00 +22°C° 0 mm 3 mps 678 mmHg 8%
    20:00 +21°C° 0 mm 3 mps 677 mmHg 9%
    21:00 +20°C° 0 mm 2 mps 677 mmHg 10%
    22:00 +20°C° 0 mm 2 mps 677 mmHg 11%
    23:00 +19°C° 0 mm 2 mps 677 mmHg 12%

    26 October, Thursday

    Time Temperature Precipitation Wind Pressure Humidity
    00:00 +18°C° 0 mm 2 mps 677 mmHg 13%
    01:00 +18°C° 0 mm 2 mps 676 mmHg 13%
    02:00 +17°C° 0 mm 2 mps 676 mmHg 14%
    03:00 +16°C° 0 mm 2 mps 676 mmHg 15%
    04:00 +16°C° 0 mm 1 mps 675 mmHg 16%
    05:00 +16°C° 0 mm 1 mps 676 mmHg 15%
    06:00 +18°C° 0 mm 1 mps 676 mmHg 15%
    07:00 +19°C° 0 mm 1 mps 677 mmHg 14%
    08:00 +21°C° 0 mm 1 mps 677 mmHg 13%
    09:00 +23°C° 0 mm 1 mps 678 mmHg 11%
    10:00 +25°C° 0 mm 1 mps 678 mmHg 9%
    11:00 +26°C° 0 mm 2 mps 678 mmHg 9%
    12:00 +27°C° 0 mm 2 mps 677 mmHg 8%
    13:00 +28°C° 0 mm 2 mps 677 mmHg 7%
    14:00 +28°C° 0 mm 2 mps 677 mmHg 7%
    15:00 +28°C° 0 mm 3 mps 676 mmHg 7%
    16:00 +28°C° 0 mm 3 mps 676 mmHg 7%
    17:00 +26°C° 0 mm 2 mps 676 mmHg 8%
    18:00 +23°C° 0 mm 2 mps 676 mmHg 10%
    19:00 +21°C° 0 mm 1 mps 676 mmHg 11%
    20:00 +20°C° 0 mm 1 mps 676 mmHg 11%
    21:00 +20°C° 0 mm 1 mps 676 mmHg 12%
    22:00 +19°C° 0 mm 1 mps 676 mmHg 12%
    23:00 +18°C° 0 mm 1 mps 676 mmHg 13%

    27 October, Friday

    Time Temperature Precipitation Wind Pressure Humidity
    00:00 +18°C° 0 mm 1 mps 676 mmHg 14%
    01:00 +16°C° 0 mm 1 mps 675 mmHg 14%
    02:00 +15°C° 0 mm 1 mps 675 mmHg 15%
    03:00 +15°C° 0 mm 1 mps 675 mmHg 15%
    04:00 +13°C° 0 mm 0 mps 675 mmHg 16%
    05:00 +14°C° 0 mm 0 mps 675 mmHg 15%
    06:00 +16°C° 0 mm 1 mps 676 mmHg 14%
    07:00 +18°C° 0 mm 1 mps 677 mmHg 13%
    08:00 +21°C° 0 mm 1 mps 677 mmHg 12%
    09:00 +23°C° 0 mm 1 mps 678 mmHg 10%
    10:00 +25°C° 0 mm 1 mps 678 mmHg 8%
    11:00 +26°C° 0 mm 1 mps 678 mmHg 8%
    12:00 +27°C° 0 mm 2 mps 677 mmHg 7%
    13:00 +28°C° 0 mm 2 mps 677 mmHg 6%
    14:00 +28°C° 0 mm 2 mps 677 mmHg 7%
    15:00 +28°C° 0 mm 2 mps 677 mmHg 7%
    16:00 +28°C° 0 mm 2 mps 676 mmHg 7%
    17:00 +26°C° 0 mm 2 mps 676 mmHg 8%
    18:00 +23°C° 0 mm 2 mps 676 mmHg 9%
    19:00 +20°C° 0 mm 2 mps 676 mmHg 10%
    20:00 +21°C° 0 mm 1 mps 676 mmHg 11%
    21:00 +20°C° 0 mm 1 mps 676 mmHg 11%
    22:00 +19°C° 0 mm 1 mps 676 mmHg 12%
    23:00 +18°C° 0 mm 1 mps 676 mmHg 12%

    28 October, Saturday

    Time Temperature Precipitation Wind Pressure Humidity
    00:00 +18°C° 0 mm 1 mps 675 mmHg 13%
    01:00 +16°C° 0 mm 1 mps 675 mmHg 14%
    02:00 +16°C° 0 mm 1 mps 675 mmHg 14%
    03:00 +15°C° 0 mm 1 mps 675 mmHg 14%
    04:00 +15°C° 0 mm 1 mps 675 mmHg 15%
    05:00 +16°C° 0 mm 1 mps 676 mmHg 14%
    06:00 +18°C° 0 mm 1 mps 676 mmHg 13%
    07:00 +18°C° 0 mm 1 mps 677 mmHg 12%
    08:00 +21°C° 0 mm 1 mps 678 mmHg 11%
    09:00 +23°C° 0 mm 1 mps 678 mmHg 9%
    10:00 +26°C° 0 mm 1 mps 679 mmHg 7%
    11:00 +27°C° 0 mm 1 mps 678 mmHg 7%
    12:00 +28°C° 0 mm 1 mps 678 mmHg 6%
    13:00 +29°C° 0 mm 2 mps 677 mmHg 6%
    14:00 +29°C° 0 mm 2 mps 677 mmHg 6%
    15:00 +29°C° 0 mm 2 mps 677 mmHg 6%
    16:00 +29°C° 0 mm 2 mps 677 mmHg 6%
    17:00 +27°C° 0 mm 2 mps 677 mmHg 7%
    18:00 +25°C° 0 mm 2 mps 677 mmHg 8%
    19:00 +21°C° 0 mm 2 mps 677 mmHg 9%
    20:00 +22°C° 0 mm 1 mps 677 mmHg 10%
    21:00 +21°C° 0 mm 1 mps 677 mmHg 11%
    22:00 +20°C° 0 mm 1 mps 677 mmHg 11%
    23:00 +19°C° 0 mm 1 mps 676 mmHg 12%

    29 October, Sunday

    Time Temperature Precipitation Wind Pressure Humidity
    00:00 +19°C° 0 mm 1 mps 676 mmHg 12%
    01:00 +18°C° 0 mm 1 mps 676 mmHg 13%
    02:00 +16°C° 0 mm 0 mps 676 mmHg 13%
    03:00 +15°C° 0 mm 0 mps 676 mmHg 14%
    04:00 +15°C° 0 mm 0 mps 675 mmHg 14%
    05:00 +16°C° 0 mm 0 mps 676 mmHg 13%
    06:00 +17°C° 0 mm 0 mps 677 mmHg 13%
    07:00 +18°C° 0 mm 0 mps 677 mmHg 12%
    08:00 +20°C° 0 mm 0 mps 678 mmHg 11%
    09:00 +23°C° 0 mm 0 mps 678 mmHg 9%
    10:00 +25°C° 0 mm 0 mps 679 mmHg 8%
    11:00 +28°C° 0 mm 1 mps 678 mmHg 8%
    12:00 +30°C° 0 mm 1 mps 678 mmHg 8%
    13:00 +31°C° 0 mm 2 mps 677 mmHg 7%
    14:00 +31°C° 0 mm 2 mps 677 mmHg 7%
    15:00 +30°C° 0 mm 3 mps 677 mmHg 8%
    16:00 +30°C° 0 mm 3 mps 677 mmHg 8%
    17:00 +28°C° 0 mm 2 mps 677 mmHg 9%
    18:00 +26°C° 0 mm 2 mps 676 mmHg 11%
    19:00 +24°C° 0 mm 2 mps 676 mmHg 12%
    20:00 +23°C° 0 mm 1 mps 676 mmHg 13%
    21:00 +22°C° 0 mm 1 mps 676 mmHg 14%
    22:00 +21°C° 0 mm 1 mps 676 mmHg 15%
    23:00 +20°C° 0 mm 1 mps 676 mmHg 15%
    Show more